Fernandina Beach, FL

10:29 PM EST on December 07, 2019 (GMT -0500)
Fernandina Beach

Weather History for KFHB - November, 2019

Change the Weather History Date:

Thursday, November 14, 2019

  Actual Average (WUND) Record (WUND)
Temperature  
Mean Temperature 56 °F -  
Max Temperature 62 °F - - (-1)
Min Temperature 51 °F - - (-1)
Degree Days  
Heating Degree Days 8    
Growing Degree Days 6 (Base 50)    
Moisture  
Dew Point 54 °F    
Average Humidity 93    
Maximum Humidity 100    
Minimum Humidity 89    
Precipitation  
Precipitation 0.09 in - - ()
Sea Level Pressure  
Sea Level Pressure 30.17 in    
Wind  
Wind Speed 15 mph (NNE)    
Max Wind Speed 22 mph    
Max Gust Speed 29 mph    
Visibility 8 miles    
Events Rain    
Averages and records for this station are not official NWS values.
T = Trace of Precipitation, MM = Missing Value Source: NWS Daily Summary

Daily Weather History Graph

Daily Weather History Graph

Search for Another Location

Airport or City:

Astronomy

Nov. 14, 2019 Rise Set
Actual Time 6:50 AM EST 5:29 PM EST
Civil Twilight 6:25 AM EST 5:54 PM EST
Nautical Twilight 5:56 AM EST 6:23 PM EST
Astronomical Twilight 5:27 AM EST 6:52 PM EST
Moon 7:19 PM EST (11/14) 8:40 AM EST (11/14)
Length of Visible Light 11h 29m
Length of Day
10h 38m
Waning Gibbous, 95% of the Moon is Illuminated
Nov 14
Waning Gibbous
Nov 19
Last Quarter
Nov 26
New
Dec 4
First Quarter
Dec 12
Full

Hourly Weather History & Observations

Time (EST) Temp. Dew Point Humidity Pressure Visibility Wind Dir Wind Speed Gust Speed Precip Events Conditions
12:15 AM 55.8 °F 52.9 °F 90% 30.21 in 10.0 mi NNE 20.7 mph 28.8 mph N/A   Overcast
12:35 AM 56.1 °F 53.1 °F 89% 30.21 in 10.0 mi NNE 13.8 mph 25.3 mph N/A   Overcast
12:55 AM 56.1 °F 53.1 °F 89% 30.20 in 10.0 mi NNE 21.9 mph 26.5 mph N/A   Overcast
1:15 AM 56.1 °F 53.1 °F 89% 30.19 in 10.0 mi NE 18.4 mph 26.5 mph N/A   Overcast
1:35 AM 56.3 °F 53.4 °F 90% 30.19 in 10.0 mi NNE 15.0 mph 25.3 mph N/A   Overcast
1:55 AM 56.5 °F 53.6 °F 90% 30.19 in 10.0 mi NNE 19.6 mph 25.3 mph N/A   Overcast
2:15 AM 57.0 °F 54.3 °F 91% 30.18 in 10.0 mi NNE 19.6 mph 25.3 mph N/A   Overcast
2:35 AM 57.2 °F 54.7 °F 91% 30.18 in 10.0 mi NE 17.3 mph 27.6 mph N/A   Overcast
2:55 AM 57.4 °F 55.0 °F 92% 30.18 in 10.0 mi NE 17.3 mph 25.3 mph N/A   Overcast
3:15 AM 57.6 °F 55.2 °F 92% 30.18 in 10.0 mi NNE 12.7 mph 24.2 mph N/A   Overcast
3:35 AM 57.2 °F 54.7 °F 91% 30.18 in 10.0 mi NNE 15.0 mph 25.3 mph N/A   Overcast
3:55 AM 56.8 °F 54.5 °F 92% 30.18 in 10.0 mi NNE 15.0 mph 24.2 mph N/A   Overcast
4:15 AM 56.8 °F 54.7 °F 92% 30.18 in 10.0 mi NNE 18.4 mph 21.9 mph N/A   Overcast
4:35 AM 56.7 °F 54.7 °F 93% 30.17 in 10.0 mi NNE 16.1 mph 28.8 mph N/A   Overcast
4:55 AM 56.5 °F 54.7 °F 94% 30.18 in 10.0 mi NNE 13.8 mph 24.2 mph N/A   Overcast
5:15 AM 55.4 °F 53.4 °F 93% 30.18 in 10.0 mi NNE 13.8 mph 18.4 mph N/A   Overcast
5:35 AM 54.7 °F 53.1 °F 94% 30.18 in 10.0 mi NNE 13.8 mph 18.4 mph N/A   Overcast
6:15 AM 53.1 °F 51.4 °F 94% 30.20 in 10.0 mi North 11.5 mph 21.9 mph N/A   Overcast
6:35 AM 52.3 °F 50.5 °F 94% 30.19 in 10.0 mi NNE 12.7 mph 20.7 mph N/A   Overcast
6:55 AM 52.2 °F 50.2 °F 93% 30.20 in 10.0 mi North 13.8 mph - N/A   Overcast
7:15 AM 52.0 °F 50.2 °F 94% 30.20 in 10.0 mi North 13.8 mph - N/A   Overcast
7:35 AM 52.2 °F 50.2 °F 93% 30.20 in 10.0 mi North 11.5 mph 19.6 mph N/A   Overcast
7:55 AM 51.8 °F 49.8 °F 93% 30.21 in 10.0 mi North 10.4 mph - N/A   Overcast
8:15 AM 52.3 °F 50.4 °F 93% 30.21 in 10.0 mi North 10.4 mph - N/A   Overcast
8:35 AM 53.1 °F 50.9 °F 92% 30.21 in 7.0 mi North 10.4 mph - N/A   Overcast
8:55 AM 53.6 °F 51.6 °F 93% 30.21 in 7.0 mi North 10.4 mph - N/A   Overcast
9:15 AM 54.7 °F 52.3 °F 92% 30.21 in 10.0 mi North 10.4 mph - N/A   Overcast
9:35 AM 55.2 °F 52.7 °F 91% 30.21 in 10.0 mi North 10.4 mph - N/A   Overcast
9:55 AM 56.3 °F 53.6 °F 91% 30.21 in 7.0 mi North 10.4 mph - N/A   Overcast
10:15 AM 56.7 °F 54.5 °F 92% 30.21 in 7.0 mi North 9.2 mph - N/A   Overcast
10:35 AM 57.7 °F 55.2 °F 91% 30.20 in 7.0 mi North 11.5 mph - N/A   Overcast
10:55 AM 58.5 °F 55.4 °F 90% 30.19 in 7.0 mi North 10.4 mph - N/A   Overcast
11:15 AM 58.8 °F 55.9 °F 90% 30.20 in 10.0 mi North 11.5 mph - N/A   Overcast
11:35 AM 57.0 °F 55.2 °F 94% 30.21 in 10.0 mi NNW 15.0 mph - N/A   Overcast
11:55 AM 56.3 °F 54.7 °F 94% 30.20 in 7.0 mi NNW 9.2 mph - N/A   Overcast
12:15 PM 57.2 °F 55.0 °F 92% 30.18 in 5.0 mi North 13.8 mph 19.6 mph N/A   Overcast
12:35 PM 57.6 °F 55.6 °F 93% 30.17 in 5.0 mi North 11.5 mph - N/A   Overcast
12:55 PM 56.8 °F 55.2 °F 94% 30.17 in 5.0 mi North 15.0 mph - N/A   Overcast
1:15 PM 58.3 °F 56.3 °F 93% 30.16 in 5.0 mi North 12.7 mph 17.3 mph N/A   Overcast
1:55 PM 57.9 °F 56.3 °F 94% 30.15 in 7.0 mi North 11.5 mph 20.7 mph N/A   Overcast
2:15 PM 57.6 °F 56.1 °F 95% 30.15 in 7.0 mi North 13.8 mph 19.6 mph N/A   Overcast
2:35 PM 57.4 °F 56.1 °F 96% 30.15 in 7.0 mi North 12.7 mph 18.4 mph N/A   Overcast
2:55 PM 56.8 °F 55.8 °F 96% 30.15 in 7.0 mi NNE 11.5 mph 19.6 mph N/A   Overcast
3:15 PM 56.7 °F 55.6 °F 96% 30.14 in 7.0 mi NNE 16.1 mph 21.9 mph N/A   Overcast
3:55 PM 56.7 °F 55.6 °F 96% 30.13 in 7.0 mi NNE 12.7 mph 21.9 mph N/A   Overcast
4:15 PM 56.8 °F 55.8 °F 96% 30.14 in 10.0 mi North 15.0 mph 20.7 mph N/A   Overcast
4:35 PM 56.7 °F 55.6 °F 96% 30.13 in 7.0 mi NNE 13.8 mph 21.9 mph N/A   Overcast
4:55 PM 56.3 °F 55.4 °F 97% 30.13 in 7.0 mi NNE 17.3 mph - N/A   Overcast
5:15 PM 56.3 °F 55.4 °F 97% 30.14 in 7.0 mi NNE 12.7 mph 19.6 mph N/A   Overcast
5:35 PM 56.3 °F 55.6 °F 97% 30.14 in 7.0 mi North 12.7 mph 21.9 mph N/A   Overcast
6:15 PM 55.9 °F 55.2 °F 97% 30.15 in 7.0 mi North 15.0 mph 24.2 mph N/A   Overcast
6:35 PM 55.8 °F 55.2 °F 98% 30.15 in 7.0 mi North 10.4 mph 17.3 mph N/A   Overcast
6:55 PM 55.8 °F 55.2 °F 98% 30.15 in 7.0 mi NNE 12.7 mph - N/A   Overcast
7:15 PM 56.1 °F 56.1 °F 100% 30.14 in 5.0 mi NNE 13.8 mph 19.6 mph N/A   Light Drizzle
7:35 PM 56.7 °F - N/A% 30.15 in 4.0 mi NNE 10.4 mph - 0.01 in Rain Light Rain
7:55 PM 57.6 °F - N/A% 30.14 in 5.0 mi NNE 13.8 mph - 0.03 in Rain Light Rain
8:15 PM 58.1 °F - N/A% 30.13 in 5.0 mi North 9.2 mph 17.3 mph 0.01 in Rain Light Rain
8:55 PM 59.4 °F - N/A% 30.14 in 7.0 mi North 11.5 mph - 0.02 in Rain Light Rain
9:15 PM 59.0 °F - N/A% 30.13 in 5.0 mi North 11.5 mph - 0.01 in Rain Light Rain
9:35 PM 58.8 °F - N/A% 30.12 in 7.0 mi NNE 11.5 mph - 0.01 in   Overcast
9:55 PM 58.5 °F - N/A% 30.11 in 5.0 mi North 12.7 mph - 0.01 in Rain Light Rain
10:15 PM 58.8 °F - N/A% 30.11 in 5.0 mi North 13.8 mph - 0.01 in Rain Light Rain
10:35 PM 59.9 °F - N/A% 30.10 in 7.0 mi NNE 12.7 mph 17.3 mph 0.02 in Rain Light Rain
10:55 PM 61.3 °F - N/A% 30.09 in 7.0 mi NNE 15.0 mph 20.7 mph 0.02 in Rain Light Rain
11:15 PM 62.2 °F - N/A% 30.08 in 7.0 mi NNE 12.7 mph - N/A Rain Light Rain
11:35 PM 62.6 °F - N/A% 30.06 in 5.0 mi NNE 15.0 mph 20.7 mph 0.01 in Rain Light Rain